CZ-6A DEB, 56679

Orbit data source: Space-Track

CZ-6A DEB, 56679 is space debris in SSO originally from a launch on Fri, 11 Nov 2022 UTC launched from the Taiyaun Space Center, China (TSC). Debris objects in space refer to the collection of defunct objects orbiting the Earth. Examples of debris include non-operational satellites, rocket bodies, and fragments generated from explosions, collisions, or faulty payload assembly.

Loading next visibility...
Identifier
56679, 2022-151AHF
Orbit
SSO
Country
Flag of CNCN / PRC
Related business
Manufacturer
SAST
Mission
Spacecraft
Bus & Motor
Unknown
Mass
Unknown
Launch date (UTC)
2022-11-11 (4 years ago)
Launch vehicle
Unknown
Launch site
Taiyaun Space Center, China (TSC)
Object type
Payload
Rocket body
Debris
Shape & HBR
Unknown shape, 0.1 m
Radar Cross Section
Small (<0.1 m²)

Expand to show TLE details & history
Last TLE update: 1 month ago

TLE from 1 month ago
0 CZ-6A DEB
1 56679U 22151AHF 26140.22450463  .00000734  00000-0  47348-3 0  9996
2 56679  98.9626 142.6722 0104762 144.9522 215.8597 14.03394609157229
Epoch: 2026-05-20T05:23Z
TLE epoch observation values (Epoch: 2026-05-20T05:23:17.200Z)
Latitude
-0.00001°
Longitude
-176.03659°
Altitude
946.873 km
Speed
7.347 km/s
True Right ascension
09h 30m 41s
True Declination
0° 00' 00"
Sunlit
Object was in daylight at epoch
Visualization orbit readout
Latitude
Unknown
Longitude
Unknown
Altitude
Unknown
Speed
Unknown
Apparent Right ascension
Unknown
Apparent Declination
Unknown
Sunlit
N/A
Visualization observer readout
Local Sidereal Time
21:51:56
Azimuth
Unknown
Elevation
Unknown
Doppler factor
Unknown
Orbital elements
Apogee altitude
955.286 km
Perigee altitude
803.227 km
Semi-major axis
7,257.393 km
Eccentricity
0.01048
Inclination
98.9626°
RAAN
142.6722°
Arg. of periapsis
144.9522°
True anomaly
215.16386°
Mean anomaly
215.8597°
Eccentric anomaly
215.51104°
Mean motion
3.51053 °/min
Orbital period
102.55 mins
BSTAR
0.00047348
Loading maneuver chart data...
Computing Atmospheric mass density...
Loading historical data...
Loading historical data...
Loading historical data...
Loading historical data...
Loading historical data...
Loading historical data...
Loading historical data...

Documentation

Showing up to 5 results
|